Change the Weather History Date:

Friday, October 26, 2012

  Actual Average Record
Temperature  
Mean Temperature 55 °F -  
Max Temperature 70 °F 55 °F 73 °F (2000)
Min Temperature 39 °F 38 °F 28 °F (2006)
Degree Days  
Heating Degree Days 10    
Growing Degree Days 5 (Base 50)    
Moisture  
Dew Point 37 °F    
Average Humidity 66    
Maximum Humidity 86    
Minimum Humidity 48    
Precipitation  
Precipitation 0.00 in - - ()
Sea Level Pressure  
Sea Level Pressure 30.12 in    
Wind  
Wind Speed 11 mph (NW)    
Max Wind Speed 21 mph    
Max Gust Speed 29 mph    
Visibility 10 miles    
Events Rain    
Averages and records for this station are not official NWS values.
T = Trace of Precipitation, MM = Missing Value Source: NWS Daily Summary

Daily Weather History Graph

Daily Weather History Graph

Search for Another Location

Airport or City:

Trip Planner

Search our weather history database for the weather conditions in past years. The results will help you decide how hot, cold, wet, or windy it might be!

Date:

Astronomy

Oct. 26, 2012 Rise Set
Actual Time 8:02 AM EDT 6:36 PM EDT
Civil Twilight 7:33 AM EDT 7:05 PM EDT
Nautical Twilight 7:00 AM EDT 7:38 PM EDT
Astronomical Twilight 6:28 AM EDT 8:10 PM EDT
Moon 4:54 PM EDT (10/26) 4:54 AM EDT (10/26)
Length of Visible Light 11h 31m
Length of Day
10h 33m
Waxing Gibbous, 91% of the Moon is Illuminated
Oct 26
Waxing Gibbous
Oct 29
Full
Nov 6
Last Quarter
Nov 13
New
Nov 20
First Quarter

Hourly Weather History & Observations

Time (EDT) Temp. Windchill Dew Point Humidity Pressure Visibility Wind Dir Wind Speed Gust Speed Precip Events Conditions
12:14 AM 68.9 °F - 50.4 °F 52% 29.83 in 10.0 mi South 12.7 mph 20.7 mph N/A   Clear
12:34 AM 69.3 °F - 50.2 °F 51% 29.83 in 10.0 mi SSW 12.7 mph 23.0 mph N/A   Mostly Cloudy
12:55 AM 69.8 °F - 50.2 °F 50% 29.83 in 10.0 mi SSW 16.1 mph 20.7 mph N/A   Overcast
1:14 AM 70.2 °F - 50.0 °F 49% 29.84 in 10.0 mi SSW 17.3 mph 23.0 mph N/A   Overcast
1:34 AM 70.0 °F - 50.4 °F 50% 29.84 in 10.0 mi SSW 12.7 mph 20.7 mph N/A   Overcast
1:55 AM 61.3 °F - 51.4 °F 70% 29.88 in 10.0 mi West 20.7 mph 28.8 mph N/A   Mostly Cloudy
2:14 AM 57.2 °F - 49.1 °F 74% 29.90 in 10.0 mi West 16.1 mph 27.6 mph N/A   Overcast
2:35 AM 55.9 °F - 47.8 °F 74% 29.92 in 10.0 mi West 16.1 mph 19.6 mph N/A   Overcast
2:55 AM 54.3 °F - 46.2 °F 74% 29.94 in 10.0 mi West 13.8 mph - N/A   Overcast
3:14 AM 53.4 °F - 45.0 °F 73% 29.95 in 10.0 mi West 13.8 mph 20.7 mph N/A   Overcast
3:35 AM 51.8 °F - 43.9 °F 74% 29.97 in 7.0 mi West 13.8 mph 19.6 mph N/A   Overcast
3:54 AM 50.4 °F - 44.6 °F 81% 29.99 in 7.0 mi West 12.7 mph 17.3 mph N/A   Overcast
4:15 AM 49.5 °F - 43.5 °F 80% 30.02 in 7.0 mi West 17.3 mph 25.3 mph N/A   Overcast
4:35 AM 48.4 °F - 43.0 °F 82% 30.00 in 7.0 mi WNW 15.0 mph 21.9 mph N/A Rain Light Rain
4:54 AM 47.7 °F - 43.2 °F 84% 30.00 in 10.0 mi WNW 11.5 mph 17.3 mph N/A Rain Rain
5:15 AM 47.3 °F - 43.3 °F 86% 30.00 in 10.0 mi NW 9.2 mph 18.4 mph N/A   Overcast
5:35 AM 47.3 °F - 43.0 °F 85% 30.03 in 10.0 mi WNW 12.7 mph 17.3 mph N/A Rain Light Rain
5:54 AM 46.6 °F - 42.3 °F 85% 30.04 in 10.0 mi WNW 16.1 mph 23.0 mph N/A Rain Light Rain
6:15 AM 46.4 °F 41.1 °F 41.9 °F 84% 30.05 in 10.0 mi WNW 11.5 mph 20.7 mph N/A Rain Light Rain
6:34 AM 45.7 °F 38.8 °F 41.5 °F 85% 30.08 in 10.0 mi WNW 16.1 mph 19.6 mph N/A Rain Light Rain
6:54 AM 45.0 °F 39.7 °F 41.0 °F 86% 30.08 in 10.0 mi NW 10.4 mph - N/A   Light Drizzle
7:15 AM 45.0 °F 38.2 °F 40.1 °F 83% 30.06 in 10.0 mi NW 15.0 mph 19.6 mph N/A   Overcast
7:34 AM 45.0 °F 39.7 °F 40.1 °F 83% 30.10 in 10.0 mi WNW 10.4 mph 18.4 mph N/A   Overcast
7:55 AM 45.0 °F 39.7 °F 39.4 °F 81% 30.11 in 10.0 mi NW 10.4 mph - N/A   Overcast
8:14 AM 45.0 °F 39.7 °F 38.8 °F 79% 30.13 in 10.0 mi NW 10.4 mph 17.3 mph N/A   Mostly Cloudy
8:34 AM 44.6 °F 40.7 °F 38.7 °F 80% 30.15 in 10.0 mi NW 6.9 mph - N/A   Scattered Clouds
8:55 AM 45.1 °F 40.3 °F 38.7 °F 78% 30.15 in 10.0 mi NW 9.2 mph - N/A   Mostly Cloudy
9:55 AM 44.8 °F 40.4 °F 37.8 °F 76% 30.17 in 10.0 mi NNW 8.1 mph - N/A   Overcast
10:14 AM 44.8 °F 39.9 °F 37.4 °F 75% 30.17 in 10.0 mi NW 9.2 mph - N/A   Overcast
10:35 AM 44.8 °F 39.4 °F 37.2 °F 75% 30.17 in 10.0 mi NW 10.4 mph - N/A   Overcast
10:54 AM 45.1 °F 39.5 °F 37.2 °F 74% 30.19 in 10.0 mi NW 11.5 mph 16.1 mph N/A   Overcast
11:15 AM 45.1 °F 39.1 °F 36.7 °F 72% 30.20 in 10.0 mi NW 12.7 mph - N/A   Overcast
11:35 AM 45.5 °F 40.8 °F 36.5 °F 71% 30.21 in 10.0 mi NW 9.2 mph - N/A   Overcast
11:54 AM 45.7 °F 40.6 °F 36.1 °F 69% 30.21 in 10.0 mi NNW 10.4 mph - N/A   Overcast
12:15 PM 45.9 °F 40.8 °F 34.3 °F 64% 30.22 in 10.0 mi NNW 10.4 mph 17.3 mph N/A   Overcast
12:35 PM 46.6 °F - 34.5 °F 63% 30.22 in 10.0 mi NNW 11.5 mph - N/A   Overcast
12:54 PM 46.8 °F - 34.0 °F 61% 30.22 in 10.0 mi NW 6.9 mph 16.1 mph N/A   Overcast
1:15 PM 47.5 °F - 33.3 °F 58% 30.22 in 10.0 mi WNW 8.1 mph 16.1 mph N/A   Overcast
1:35 PM 47.5 °F - 33.4 °F 58% 30.21 in 10.0 mi NW 6.9 mph - N/A   Mostly Cloudy
1:54 PM 48.0 °F - 32.7 °F 55% 30.22 in 10.0 mi NNW 8.1 mph - N/A   Scattered Clouds
2:15 PM 47.3 °F - 32.0 °F 55% 30.21 in 10.0 mi NW 11.5 mph 17.3 mph N/A   Scattered Clouds
2:34 PM 47.7 °F - 32.2 °F 55% 30.22 in 10.0 mi NW 6.9 mph - N/A   Clear
2:54 PM 47.7 °F - 31.5 °F 53% 30.22 in 10.0 mi NNW 8.1 mph - N/A   Clear
3:15 PM 48.9 °F - 31.8 °F 52% 30.21 in 10.0 mi NNW 4.6 mph - N/A   Clear
3:34 PM 49.3 °F - 30.6 °F 49% 30.20 in 10.0 mi NNW 6.9 mph - N/A   Clear
3:55 PM 49.3 °F - 30.4 °F 48% 30.20 in 10.0 mi North 8.1 mph - N/A   Clear
4:15 PM 49.1 °F - 30.2 °F 48% 30.21 in 10.0 mi NNW 5.8 mph - N/A   Clear
4:34 PM 48.6 °F - 30.4 °F 50% 30.21 in 10.0 mi North 5.8 mph - N/A   Clear
4:55 PM 49.1 °F - 30.9 °F 50% 30.21 in 10.0 mi NNW 8.1 mph - N/A   Clear
5:15 PM 48.7 °F - 30.6 °F 50% 30.20 in 10.0 mi NNW 5.8 mph - N/A   Clear
5:34 PM 48.0 °F - 31.1 °F 52% 30.20 in 10.0 mi NW 9.2 mph - N/A   Clear
5:55 PM 47.7 °F - 30.2 °F 51% 30.20 in 10.0 mi NNW 5.8 mph - N/A   Clear
6:15 PM 46.4 °F 42.9 °F 30.2 °F 53% 30.20 in 10.0 mi NNW 6.9 mph - N/A   Clear
6:34 PM 45.9 °F 43.6 °F 29.8 °F 54% 30.20 in 10.0 mi NNW 4.6 mph - N/A   Clear
6:55 PM 45.1 °F 43.7 °F 30.2 °F 56% 30.21 in 10.0 mi NNW 3.5 mph - N/A   Clear
7:14 PM 44.8 °F 42.4 °F 31.1 °F 59% 30.21 in 10.0 mi NNW 4.6 mph - N/A   Clear
7:34 PM 44.8 °F 41.6 °F 30.9 °F 58% 30.21 in 10.0 mi NNW 5.8 mph - N/A   Clear
8:14 PM 44.8 °F 42.4 °F 30.6 °F 57% 30.22 in 10.0 mi NNW 4.6 mph - N/A   Clear
8:35 PM 44.6 °F 43.1 °F 30.9 °F 59% 30.23 in 10.0 mi NNW 3.5 mph - N/A   Clear
8:55 PM 44.4 °F - 30.4 °F 58% 30.23 in 10.0 mi Calm Calm - N/A   Clear
9:14 PM 44.1 °F - 30.9 °F 60% 30.23 in 10.0 mi Calm Calm - N/A   Clear
9:35 PM 43.2 °F - 31.1 °F 62% 30.23 in 10.0 mi Calm Calm - N/A   Clear
9:55 PM 42.6 °F - 30.7 °F 63% 30.23 in 10.0 mi Calm Calm - N/A   Clear
10:14 PM 41.9 °F - 30.9 °F 65% 30.23 in 10.0 mi Calm Calm - N/A   Clear
10:35 PM 41.2 °F 39.2 °F 30.7 °F 66% 30.23 in 10.0 mi NNW 3.5 mph - N/A   Clear
10:55 PM 41.2 °F - 30.6 °F 66% 30.22 in 10.0 mi Calm Calm - N/A   Clear
11:14 PM 41.2 °F - 30.6 °F 66% 30.23 in 10.0 mi Calm Calm - N/A   Clear
11:35 PM 40.3 °F - 30.7 °F 69% 30.23 in 10.0 mi Calm Calm - N/A   Clear
11:54 PM 39.6 °F - 30.2 °F 69% 30.22 in 10.0 mi Calm Calm - N/A   Clear